Theta_e
341 342 341 341 342 342 341 341 342 342 343 343 343 342 342 343 342 343 342 342 342 344 343 343 344 345 345 346 346 345 346 346 346 347 346 346 344 343 343 343 344 344 344 342 338 338 340 342 344 344 345 345 346 346 347 347 348 348 347 347 346 345 346 345 345 344 344 343 342 342 341 339 338 334
342 342 342 341 341 342 342 342 342 343 342 343 342 342 342 343 344 344 343 343 343 344 344 344 344 344 345 346 346 346 346 346 347 347 347 346 345 344 344 344 345 345 344 341 338 338 339 340 341 342 343 344 344 345 345 346 347 347 347 348 347 346 346 346 345 344 343 343 341 341 341 339 337 333
342 342 342 341 341 342 342 342 343 343 342 342 342 343 342 344 344 344 344 344 344 344 344 344 345 344 345 345 346 346 346 346 346 346 346 346 346 345 345 345 346 346 345 342 340 341 341 339 340 340 341 343 343 343 344 344 345 345 346 347 347 346 346 346 345 344 343 343 342 341 339 338 337 335
343 342 341 341 341 341 341 341 342 343 342 342 342 343 343 344 345 344 344 345 344 344 344 343 343 345 344 345 345 346 346 346 345 345 345 345 345 345 345 345 346 346 345 344 342 342 342 341 340 339 340 340 341 342 343 343 344 344 345 347 346 346 347 346 344 343 343 342 341 340 339 339 338 336
340 340 340 340 339 339 339 339 338 339 341 342 342 343 343 343 345 345 345 345 345 345 344 343 343 343 344 345 345 345 346 346 346 345 345 344 343 344 343 343 344 343 344 345 343 343 342 342 341 340 340 340 340 340 341 342 343 344 344 346 346 345 346 345 343 342 342 340 339 339 339 339 339 337
339 339 339 339 339 338 337 336 336 336 338 339 341 342 343 343 343 344 344 344 344 344 344 344 344 343 343 344 344 345 345 345 346 346 346 345 343 342 342 342 342 342 343 344 344 343 343 342 342 342 340 340 340 340 340 340 341 341 342 343 343 343 344 344 342 342 342 340 338 338 338 339 339 336
340 339 339 339 339 338 337 336 337 338 337 339 340 341 343 343 343 343 344 344 344 344 343 343 344 343 343 342 344 345 345 345 345 346 346 346 345 344 343 343 343 342 343 343 344 343 343 342 342 342 342 341 341 341 340 340 340 340 339 340 340 341 342 342 340 339 341 340 339 339 338 338 338 335
341 340 339 339 339 339 339 339 340 340 340 341 342 343 343 343 343 344 343 344 344 343 343 343 344 344 344 343 343 344 346 345 344 345 346 346 346 346 346 345 344 344 344 344 344 344 344 343 343 343 343 343 342 342 342 342 341 340 340 340 339 339 340 341 339 339 341 341 339 339 338 338 337 335
343 343 340 339 339 338 339 339 339 339 339 340 341 342 343 343 343 343 343 343 344 343 342 342 344 345 345 344 344 344 345 345 345 346 346 347 346 346 346 346 345 345 345 345 344 344 344 344 344 343 343 343 343 344 344 343 343 342 341 341 340 340 340 339 339 340 342 341 339 339 338 338 336 335
344 344 342 340 338 337 337 337 337 337 338 338 339 338 340 341 342 342 341 342 343 342 341 342 345 346 345 345 345 345 346 345 346 346 346 346 346 346 346 346 346 346 346 345 345 344 343 344 344 344 344 344 343 344 344 344 344 343 343 342 341 341 339 338 339 341 342 340 339 340 339 338 336 335
344 343 341 338 336 335 335 335 335 335 336 337 337 337 337 339 340 340 339 339 340 340 339 343 346 346 346 346 346 346 346 346 346 346 346 346 346 346 347 347 347 347 346 346 345 344 344 344 344 344 344 344 344 344 344 344 344 344 344 344 343 342 340 339 341 342 342 340 338 339 338 337 335 334
339 338 336 335 335 334 335 334 333 334 335 337 337 337 338 340 340 340 340 339 339 338 338 342 346 346 346 346 346 346 347 346 347 346 346 347 346 347 347 347 347 347 345 344 343 343 343 343 344 345 344 344 344 344 344 344 344 344 344 344 344 342 341 340 342 345 343 340 339 339 338 337 335 334
335 335 334 335 335 335 333 332 332 332 334 335 336 338 340 341 342 341 341 341 340 340 340 341 345 346 346 346 346 347 347 347 347 347 347 347 346 346 347 346 346 345 344 343 341 339 339 341 344 345 344 344 344 344 343 343 344 344 344 344 344 344 342 341 342 344 343 339 339 340 338 336 335 334
336 336 336 336 336 334 333 332 332 332 333 334 337 339 341 342 343 343 343 343 343 342 342 342 345 346 346 346 347 347 347 347 347 347 347 347 347 347 347 346 344 344 343 342 339 336 336 338 340 342 343 343 343 342 342 342 343 344 344 345 345 344 344 342 341 341 340 338 339 339 338 337 336 334
340 339 338 337 336 335 333 332 333 333 334 336 338 341 344 345 345 345 345 344 343 343 344 344 345 346 346 346 346 346 347 347 347 347 347 347 347 347 348 347 345 343 342 342 341 339 339 339 339 339 340 341 342 342 341 342 343 344 345 346 345 345 344 342 340 340 339 339 339 339 338 338 337 335
342 342 341 340 339 337 335 335 336 338 339 341 342 343 345 347 347 346 346 345 344 344 344 344 344 345 345 347 347 346 346 346 347 347 347 347 348 347 348 348 346 344 344 345 345 344 343 343 342 339 337 337 340 341 341 341 343 343 344 345 346 346 343 341 340 341 341 341 340 340 340 339 337 336
345 344 344 343 342 341 341 340 341 342 343 343 344 345 346 346 346 347 346 345 345 345 345 344 345 343 343 345 346 347 347 347 347 347 347 347 347 347 348 348 347 347 347 347 347 346 343 342 342 340 337 337 338 339 340 341 343 344 345 345 345 345 344 342 341 341 341 342 342 341 341 339 338 337
346 346 345 344 343 343 344 344 344 344 344 343 344 345 346 346 346 346 345 344 345 345 345 346 345 346 345 345 345 346 346 346 346 347 348 348 348 348 347 347 346 347 346 346 348 346 342 341 341 338 337 338 338 338 340 341 342 344 345 345 346 345 344 344 343 341 341 342 342 341 340 339 338 337
346 345 345 344 342 342 343 345 345 345 344 344 344 344 345 346 346 346 345 344 344 345 345 345 346 347 347 347 346 347 347 347 347 347 348 348 348 348 348 347 346 346 345 346 348 347 343 341 341 339 338 339 339 340 341 341 342 343 344 345 346 345 345 344 344 343 342 341 340 341 340 340 338 337
345 345 344 344 343 342 342 344 345 344 344 343 344 345 345 346 346 346 346 345 344 345 347 346 346 347 348 348 348 348 348 348 348 348 348 348 348 348 347 346 345 345 345 345 346 347 345 343 342 341 340 341 340 340 341 341 342 343 343 344 345 345 344 343 342 342 342 341 340 341 340 340 339 338
344 345 345 345 345 344 343 344 344 344 344 344 344 345 345 345 346 345 345 344 344 346 347 346 346 346 346 346 347 346 346 347 347 347 347 347 348 349 348 347 346 346 344 344 346 347 347 345 344 344 343 342 341 340 340 341 342 343 344 345 345 344 343 343 341 341 341 341 342 342 341 340 340 339
345 345 345 345 345 345 345 344 344 344 344 344 343 343 344 344 344 344 343 344 345 346 346 346 346 346 345 345 345 345 345 345 345 345 345 346 347 348 347 346 347 347 346 345 347 349 346 345 345 347 346 344 342 342 342 342 343 344 345 346 346 345 344 344 343 342 342 342 342 343 342 341 340 339
344 344 344 345 344 345 344 344 344 343 343 342 342 342 343 343 343 342 343 343 344 344 345 345 345 345 345 345 345 345 344 343 343 343 343 344 346 346 346 345 346 347 344 342 345 348 347 346 346 346 346 346 343 342 342 342 343 343 344 345 346 346 346 346 344 344 342 342 342 343 343 343 341 338
344 344 344 344 344 344 344 343 343 343 343 343 342 342 342 342 342 342 342 342 343 342 343 344 345 345 345 345 345 345 345 343 341 340 339 341 342 344 344 344 344 345 342 338 342 346 345 345 346 346 346 346 343 340 340 341 341 341 342 344 345 346 346 346 346 346 344 343 342 342 343 343 341 338
344 344 344 343 344 344 343 343 343 343 343 342 342 342 342 342 342 342 342 342 342 342 343 343 344 344 344 345 345 344 344 344 342 340 339 339 341 342 343 343 343 344 341 338 342 346 345 345 346 347 347 346 344 343 341 341 340 340 341 342 343 344 345 346 346 346 346 345 344 343 342 343 343 340
343 343 343 343 344 344 344 343 343 343 342 343 342 343 342 343 343 343 342 343 343 344 344 343 344 344 344 344 344 344 344 343 342 341 340 340 341 342 341 342 343 344 343 342 344 346 346 346 346 347 347 346 345 346 346 343 341 342 342 342 342 343 344 345 346 346 346 346 345 344 343 343 343 339
343 343 344 344 344 344 344 343 342 342 342 343 343 343 343 343 344 344 343 343 344 344 344 344 344 344 344 344 344 343 344 343 343 342 342 342 343 344 343 342 343 344 344 344 345 346 347 346 346 347 347 346 347 348 348 346 344 344 344 344 343 344 345 346 346 346 345 345 345 345 344 343 341 337
344 344 345 345 345 344 344 344 344 344 344 344 345 344 345 344 344 344 344 344 344 344 344 344 344 344 343 344 344 344 343 344 344 344 344 344 344 345 345 344 344 344 344 345 345 346 346 346 346 346 347 347 348 348 347 347 346 345 345 345 345 346 346 346 346 346 345 346 346 345 345 344 341 335
346 345 345 345 345 345 345 344 344 344 344 344 344 344 343 343 343 343 342 342 343 343 342 343 343 343 342 342 342 342 343 343 344 344 344 344 343 344 345 346 345 344 343 344 345 346 346 346 346 347 347 348 348 347 347 347 346 345 345 346 345 345 344 344 345 345 345 346 346 345 346 344 340 333
346 346 346 345 345 344 344 344 344 344 344 343 343 343 343 343 343 343 343 343 343 343 343 342 342 341 341 341 341 341 341 341 341 341 341 342 341 342 345 346 346 344 342 343 345 345 346 346 345 345 347 347 347 347 346 346 346 345 345 345 345 344 343 343 344 344 345 345 345 343 342 340 337 332
346 346 345 345 345 344 343 343 343 342 341 341 340 340 340 339 339 340 340 340 340 340 340 341 341 340 340 341 341 341 342 342 342 342 342 342 341 342 344 346 345 343 342 343 343 343 344 345 344 345 346 346 346 346 345 345 345 344 345 345 345 344 344 343 344 345 345 344 342 340 339 336 332 331
345 344 343 342 341 340 339 338 337 336 336 336 335 335 336 335 336 336 336 336 336 336 337 337 337 337 337 338 338 338 339 340 340 341 343 344 344 344 345 346 345 344 344 344 344 344 344 344 345 345 345 345 345 345 345 344 345 344 344 344 344 344 345 345 345 345 344 341 338 335 333 330 328 328
340 338 337 336 336 335 335 335 334 334 334 334 335 336 336 337 337 337 337 337 337 337 337 338 338 338 337 337 337 336 336 336 335 337 340 343 344 344 345 345 345 345 344 344 344 344 344 345 345 345 345 345 345 344 344 344 345 344 344 344 343 344 344 344 344 344 341 337 333 329 326 325 325 326
335 335 335 334 335 334 333 333 333 333 334 334 336 336 337 337 338 338 337 337 337 336 336 336 337 337 337 337 338 338 338 337 336 335 337 339 340 342 343 344 344 344 344 343 343 344 344 344 344 344 344 344 342 342 342 342 343 343 343 343 342 342 342 342 342 340 336 331 328 326 324 323 324 324
335 334 334 334 334 333 332 332 333 334 334 335 335 336 336 336 337 337 337 336 337 337 336 336 336 336 337 339 339 341 341 340 340 340 339 338 338 340 341 342 343 343 342 343 343 343 344 343 343 342 341 341 341 341 341 341 342 342 342 342 341 341 341 339 336 333 330 327 325 324 323 322 323 323
333 333 333 334 333 333 333 333 334 334 334 334 334 335 335 335 335 336 336 336 337 337 337 337 337 337 337 338 339 340 340 340 340 341 341 340 341 341 341 342 342 342 343 343 343 343 342 341 341 340 339 340 340 342 342 341 341 342 342 341 340 340 338 334 330 328 327 326 325 323 321 322 323 323
331 333 334 334 334 334 334 334 334 335 334 333 333 333 334 335 335 336 336 336 336 337 337 338 338 338 338 338 338 338 338 337 338 339 340 340 341 342 341 342 342 342 342 342 341 341 340 339 339 338 338 339 339 340 340 340 340 340 340 338 337 335 333 330 327 327 326 324 323 321 320 321 322 321
332 334 335 335 335 335 335 335 334 335 334 333 333 333 333 334 335 335 335 336 335 336 336 337 337 338 338 338 338 338 338 338 339 340 340 340 340 340 340 341 341 341 340 340 340 340 340 339 339 339 339 340 339 339 339 339 338 337 336 333 331 330 329 327 326 325 324 322 320 319 319 319 320 319
334 335 335 335 334 333 333 333 333 333 333 333 333 333 334 334 334 334 334 334 334 335 335 335 336 336 337 337 337 337 338 338 339 339 339 338 338 338 339 339 339 339 339 339 339 339 338 339 339 339 339 339 338 337 336 335 334 333 331 329 327 326 326 325 325 323 322 320 319 318 318 318 318 318
335 334 332 330 329 328 328 328 329 330 331 332 332 333 334 334 333 333 333 333 333 333 333 334 335 335 336 336 336 336 336 337 337 337 337 337 337 337 337 337 337 337 337 337 337 337 337 337 337 337 336 335 334 333 331 331 330 329 328 327 325 325 325 324 324 323 322 321 320 319 318 318 317 317
329 327 323 321 321 320 321 322 324 327 329 331 331 332 333 333 333 333 333 333 332 332 332 333 334 334 334 335 335 334 334 335 335 335 335 335 335 335 335 335 335 335 335 334 334 334 333 333 332 332 331 331 330 330 329 329 328 326 325 325 325 325 324 324 323 322 322 321 321 320 319 318 317 316
321 318 316 316 316 316 317 319 322 324 326 328 330 331 332 332 332 332 332 332 332 332 332 332 333 333 333 333 333 333 334 334 334 334 334 334 334 334 334 334 334 333 332 331 331 330 330 329 328 328 328 328 328 328 328 327 326 325 325 325 325 324 324 323 322 322 321 320 320 319 318 317 316 316
319 317 316 316 316 315 316 317 318 319 321 324 327 329 330 331 330 330 331 331 331 331 332 332 332 332 331 330 330 331 332 333 333 333 333 333 333 333 333 332 332 331 331 330 329 328 327 327 326 326 327 327 327 327 327 327 327 326 326 325 324 323 323 323 322 321 319 319 319 319 318 317 316 316
324 323 321 321 320 319 318 317 316 316 318 320 323 325 326 326 327 328 329 330 330 330 330 331 331 331 329 328 329 330 331 331 332 332 332 330 330 330 330 330 330 330 330 329 329 327 327 326 326 326 326 326 326 326 326 326 327 326 326 325 324 323 323 322 321 320 319 319 318 318 318 317 317 316
328 327 327 326 325 323 322 320 318 317 317 318 319 320 320 320 322 325 328 329 329 330 330 330 330 330 329 328 328 328 329 329 329 329 329 328 328 328 328 328 328 329 329 329 328 327 326 326 326 326 326 326 324 323 324 325 326 326 326 324 322 321 321 320 320 319 319 319 319 318 318 318 318 317
Wind_Speed
17 16 16 15 13 12 11 9 8 7 6 5 6 6 6 7 8 9 10 9 8 8 9 10 10 10 9 8 7 6 4 5 6 6 7 7 6 5 5 5 6 7 7 6 5 5 5 5 5 6 7 7 8 8 8 9 9 9 9 8 8 7 7 6 7 8 8 8 8 8 9 9 8 7
18 18 18 17 16 14 13 11 10 9 8 8 8 8 7 7 7 9 10 10 8 7 9 11 12 11 10 10 9 7 6 5 6 6 7 7 7 6 6 6 6 7 7 6 4 4 5 6 6 6 7 8 8 9 9 10 10 10 10 11 10 10 10 10 9 9 10 10 9 8 9 10 9 7
19 19 19 19 18 16 15 14 12 11 10 10 10 9 8 7 8 9 10 10 9 9 10 11 11 11 11 11 10 9 8 7 7 7 7 7 7 7 7 7 7 7 7 6 5 5 6 7 7 7 7 8 8 9 10 10 11 11 11 12 12 13 14 13 11 10 10 10 10 9 10 11 10 9
19 19 20 20 19 18 17 16 16 15 13 12 11 10 10 9 9 10 11 12 12 10 10 11 10 9 10 11 11 11 10 9 8 7 7 8 7 8 8 8 8 7 7 7 7 7 7 7 8 8 8 8 9 9 9 10 11 12 12 13 14 16 17 16 14 12 10 10 10 10 11 11 11 10
21 20 20 20 20 19 19 19 18 18 17 16 14 13 12 11 10 11 12 13 13 12 12 11 11 9 10 11 11 11 11 10 9 9 9 8 8 9 9 9 9 8 8 8 8 9 8 8 8 8 8 8 9 9 10 10 11 12 13 14 16 17 18 17 14 12 10 10 10 10 11 11 11 11
21 20 20 19 19 20 20 20 19 19 19 19 18 16 14 13 12 13 13 14 15 16 15 14 13 12 11 11 11 12 12 11 11 10 10 10 10 10 10 10 10 10 9 9 9 9 9 9 9 10 10 9 9 9 9 10 11 12 14 15 17 18 18 15 12 11 11 11 10 10 12 12 12 12
22 21 20 18 17 18 19 19 19 18 18 18 18 17 16 16 15 15 15 15 17 18 17 16 15 14 13 13 13 13 13 13 13 11 11 11 12 11 12 12 12 12 11 10 10 10 10 11 11 11 11 11 10 9 9 10 11 12 13 14 16 17 16 13 11 11 11 13 13 12 12 12 13 13
24 23 22 20 18 18 19 19 18 18 17 16 16 17 18 18 17 17 16 17 17 18 19 18 15 14 14 15 15 14 15 15 14 13 12 13 13 13 14 14 14 13 12 12 11 11 11 12 12 12 12 12 11 11 11 11 12 12 13 13 14 14 14 13 12 12 12 12 13 14 14 13 14 14
26 25 24 22 21 21 21 21 20 19 18 17 17 17 18 19 19 19 19 19 19 19 20 19 17 15 14 15 15 15 16 16 16 15 15 15 16 16 16 15 15 14 13 13 12 12 12 13 13 14 14 13 13 13 13 13 14 14 14 14 14 14 14 14 15 16 16 14 14 17 17 15 15 15
28 28 27 25 25 24 24 24 23 23 22 20 20 19 19 20 21 21 21 21 21 21 21 20 18 15 14 15 15 15 16 17 17 17 17 17 18 18 17 16 15 15 14 14 14 14 14 14 15 15 15 16 15 15 15 15 15 15 15 16 15 15 15 16 16 17 17 16 16 18 18 17 16 17
31 30 30 29 28 26 26 26 25 25 24 23 22 22 21 21 22 22 23 23 23 22 22 20 19 17 15 15 16 16 17 18 19 19 19 19 19 17 17 16 15 16 16 16 16 15 15 16 16 16 17 17 17 17 16 16 15 15 16 17 16 16 17 17 17 18 18 17 17 18 19 19 18 17
33 32 31 30 28 26 26 27 26 25 25 24 24 23 22 21 21 21 21 22 22 22 22 21 20 19 17 17 17 17 18 20 21 20 20 20 19 18 18 17 17 17 17 17 16 16 16 16 16 16 17 17 17 17 17 16 16 16 17 17 17 18 18 17 18 21 20 19 20 20 20 20 17 15
31 30 30 29 27 26 25 26 26 26 25 25 24 23 22 21 20 20 20 21 21 21 21 22 22 21 21 20 19 19 20 21 21 20 20 21 21 20 21 20 18 18 18 18 17 16 16 17 17 17 17 16 16 17 18 17 17 16 17 18 18 18 19 18 19 24 24 22 22 22 22 21 18 16
30 30 30 29 28 27 25 25 25 25 25 25 24 23 22 20 19 19 19 19 20 21 22 22 22 23 23 22 20 20 20 20 20 20 21 22 22 22 24 24 22 20 19 20 20 18 17 18 18 18 18 17 17 18 19 18 17 17 18 19 19 19 19 18 20 23 23 21 22 23 23 23 20 19
30 30 30 30 29 27 25 25 25 25 25 24 24 23 22 21 20 19 19 19 19 20 22 23 24 24 25 24 23 22 21 21 22 22 22 22 23 23 25 26 25 23 22 23 24 23 21 21 21 21 20 20 19 20 20 19 19 19 19 20 20 20 20 20 20 21 22 21 22 24 25 24 21 20
27 27 27 26 26 25 24 24 24 23 23 23 23 23 23 23 21 20 19 19 19 19 21 23 25 26 27 26 25 24 23 23 22 22 22 23 23 24 25 27 27 25 25 27 28 28 25 24 24 25 24 22 22 22 21 21 21 21 21 21 21 21 21 21 20 20 22 23 24 26 27 26 22 20
24 24 24 24 23 23 22 22 22 21 21 21 22 23 24 23 22 20 20 20 20 20 21 23 25 27 27 28 27 24 24 24 23 23 24 25 25 26 26 26 26 26 26 28 30 30 29 26 27 29 27 24 24 24 23 23 23 23 22 22 22 22 23 22 20 20 23 26 27 28 29 28 25 22
23 24 24 24 24 23 22 21 21 20 20 21 22 23 23 22 21 20 20 20 21 22 23 24 25 25 25 27 27 25 26 26 25 25 27 27 27 28 28 26 26 26 27 27 29 32 31 28 29 30 28 25 25 25 24 24 25 25 25 25 24 24 24 24 22 21 22 26 28 30 30 30 27 25
24 23 22 23 24 24 23 21 19 19 20 21 23 23 24 23 23 22 22 22 23 23 24 25 25 24 23 23 23 23 25 26 26 26 28 28 28 29 28 27 27 27 27 27 28 32 32 29 30 30 28 26 26 26 25 26 26 27 27 28 28 26 25 25 25 25 24 25 26 28 30 31 30 28
24 21 20 20 21 22 23 21 19 19 20 22 23 24 25 25 25 25 25 25 25 24 24 24 25 26 25 24 24 23 24 25 25 26 28 28 29 29 28 29 30 29 28 27 28 30 31 29 29 29 28 27 28 27 27 27 27 28 28 29 29 28 27 25 25 26 27 26 27 27 28 29 31 31
22 20 19 19 18 20 20 19 19 18 20 22 24 25 27 27 27 27 27 27 26 25 24 24 24 24 25 24 24 24 25 25 26 27 28 30 31 30 30 32 31 30 30 30 29 30 31 31 30 30 30 30 30 29 29 28 27 27 27 28 28 28 28 27 26 26 27 29 31 33 32 31 31 33
22 21 20 20 19 20 19 19 19 19 20 22 23 25 27 28 29 29 28 27 27 26 25 25 25 25 25 25 25 26 26 26 27 29 30 30 30 31 32 32 31 31 32 33 31 32 33 32 30 31 32 32 31 30 29 29 27 26 26 26 26 26 27 28 28 28 29 30 32 35 37 36 35 35
21 22 22 21 21 21 20 20 20 20 21 23 23 24 26 28 29 29 28 28 28 28 27 27 28 28 29 28 29 29 29 29 30 31 32 32 32 33 34 33 32 33 34 33 31 31 32 31 31 31 32 32 33 32 31 31 30 29 29 28 28 28 28 28 29 30 31 31 32 34 37 39 40 40
21 22 22 21 21 22 22 22 22 22 23 23 24 24 26 28 29 29 29 30 30 30 31 31 31 32 33 33 34 34 34 33 33 32 33 33 33 34 35 35 34 35 37 36 33 32 32 33 35 34 33 34 35 35 34 34 34 33 33 32 31 31 30 30 31 31 32 33 34 34 36 40 44 45
21 22 20 19 20 21 22 23 24 25 26 26 26 26 27 28 29 30 31 32 32 33 34 34 35 36 37 37 38 38 38 37 36 35 34 33 33 33 34 34 34 36 37 36 34 32 33 35 36 35 34 35 37 37 36 36 35 35 35 34 34 34 33 32 33 33 34 34 35 36 37 39 44 48
22 21 19 18 20 21 23 24 26 27 28 29 29 30 30 31 32 33 34 35 35 35 36 36 37 38 39 40 40 40 40 39 38 37 37 35 34 34 34 34 34 35 36 34 33 33 34 35 36 36 35 36 38 39 38 38 38 37 36 35 36 36 36 36 35 35 36 37 37 38 39 40 45 49
21 20 19 20 22 24 26 27 28 29 30 31 31 31 32 33 34 35 36 37 37 38 38 39 40 41 41 42 42 41 41 41 40 40 39 37 36 35 35 35 35 35 35 34 35 36 36 37 37 38 38 38 40 41 41 40 40 40 38 36 36 37 38 38 38 37 38 39 39 40 42 45 49 50
19 20 20 22 24 25 27 27 28 29 30 31 32 32 33 34 35 36 37 38 38 40 41 41 43 43 43 43 44 44 43 43 43 43 42 40 38 37 37 37 37 36 36 36 37 38 39 39 40 40 39 39 40 42 42 43 43 43 42 41 41 41 40 39 40 40 41 41 41 42 45 48 51 49
19 20 22 23 24 25 26 27 28 29 30 31 32 33 34 35 36 37 38 39 40 41 43 43 44 45 45 45 45 45 45 45 45 45 44 43 41 40 39 39 39 39 39 39 39 40 40 41 41 41 42 42 42 43 44 45 46 45 45 45 45 44 43 41 42 42 43 43 44 45 48 50 50 48
20 22 23 24 25 26 27 28 29 30 31 32 33 34 35 36 37 38 39 40 41 42 44 44 45 47 47 46 46 46 46 46 46 46 46 45 44 43 42 42 42 43 42 42 41 41 42 42 42 43 44 45 45 46 47 47 47 46 46 46 46 45 44 42 42 43 44 45 45 46 48 49 49 48
20 21 22 23 24 25 26 28 29 30 31 32 33 33 34 35 36 36 37 38 40 42 43 43 44 46 47 46 46 47 46 46 47 46 45 45 45 44 43 43 45 46 46 45 44 44 44 44 44 45 45 45 45 46 45 45 45 45 44 44 44 45 43 42 42 43 45 45 45 45 46 46 46 47
19 20 21 22 23 23 24 25 26 28 29 29 30 30 31 31 32 32 33 34 35 37 37 36 38 41 41 41 42 42 42 43 44 43 41 41 43 43 42 42 44 46 45 45 45 45 44 43 43 42 42 41 41 40 40 40 41 42 41 41 42 44 43 43 44 45 46 44 42 41 42 42 42 44
17 18 19 19 20 20 21 22 22 23 24 24 25 25 25 25 25 26 26 27 29 31 31 31 32 35 35 36 36 37 37 39 40 39 37 37 38 39 38 39 40 42 42 42 41 40 39 38 37 36 35 35 36 36 36 38 39 39 39 40 42 44 45 45 45 46 45 41 36 34 33 32 33 36
14 15 16 16 16 16 17 17 17 18 19 20 20 20 20 20 20 21 21 22 24 25 26 27 29 30 30 30 30 30 30 30 31 33 33 33 34 34 33 33 34 35 37 37 36 35 33 31 30 30 31 32 33 33 33 34 35 35 35 35 37 39 43 46 46 44 39 32 25 24 26 27 30 32
12 13 13 13 13 13 13 14 15 15 16 16 17 17 17 17 18 18 19 20 21 22 23 24 26 27 28 28 28 29 29 26 25 26 27 27 28 29 29 30 30 31 32 32 32 30 29 27 27 29 30 31 32 32 32 33 33 33 32 32 32 34 39 42 40 33 26 19 15 18 24 28 30 29
11 12 12 12 12 12 13 13 13 13 14 14 14 15 16 17 18 18 19 19 20 21 21 22 24 25 27 28 28 29 29 27 27 28 26 25 26 27 27 27 27 26 27 28 28 28 27 27 28 30 31 31 32 34 34 34 33 31 31 31 31 32 34 32 27 21 18 14 13 17 23 28 30 28
11 12 12 11 11 11 11 11 12 12 13 13 13 13 15 16 16 18 18 19 20 21 20 20 21 22 23 25 26 27 28 27 28 28 27 27 28 29 29 27 25 25 26 28 29 30 30 30 31 30 29 30 32 34 35 35 34 32 30 28 27 27 24 21 18 16 14 11 10 13 19 25 27 25
10 10 9 9 9 9 9 10 11 12 12 13 14 15 15 16 16 16 16 16 17 18 18 18 19 20 21 22 23 24 24 24 24 25 25 26 25 25 24 23 22 23 25 26 26 27 27 28 29 28 28 30 33 33 33 33 31 27 22 18 16 15 14 12 11 11 11 12 13 15 17 20 21 22
8 7 6 6 7 8 9 10 11 12 13 13 15 16 16 17 16 16 15 15 15 15 16 16 16 17 19 20 20 19 19 20 21 22 22 21 20 19 20 20 20 22 23 24 25 26 27 28 29 27 26 27 29 29 27 24 21 16 11 6 5 6 6 7 8 11 14 16 17 18 18 18 18 19
5 4 5 5 6 7 8 9 9 10 11 12 14 15 15 16 16 16 17 17 16 15 15 14 15 15 16 17 18 18 18 18 20 20 20 20 21 22 23 23 23 23 24 24 25 26 26 26 25 23 21 20 19 17 15 13 10 7 5 6 9 8 6 7 9 12 15 18 19 18 18 19 19 20
3 3 3 5 6 7 8 8 9 10 11 11 13 14 14 15 16 16 17 17 16 15 14 14 14 14 14 14 14 15 14 14 14 15 15 16 17 17 17 16 15 15 15 14 14 13 13 12 10 9 9 9 7 4 3 3 4 6 8 11 14 14 12 10 10 10 13 17 19 20 20 20 20 20
2 4 5 7 8 8 9 9 10 10 11 11 12 12 13 14 14 15 15 15 14 14 13 13 12 12 12 12 12 12 12 12 11 11 11 11 10 9 8 8 8 7 7 6 5 5 5 5 5 5 4 4 5 6 7 6 7 10 12 14 16 17 15 13 12 11 11 12 15 18 20 22 22 22
6 7 7 8 8 9 10 10 11 11 11 12 12 12 13 13 13 14 14 14 13 13 12 12 12 12 12 11 11 11 12 11 11 11 10 10 9 8 7 7 7 7 8 8 7 7 8 10 12 13 13 12 12 12 12 12 13 14 15 17 18 19 17 16 15 14 12 11 10 11 14 16 17 17
6 6 6 6 7 8 9 10 10 11 11 12 12 12 13 13 14 14 14 13 13 13 13 13 13 13 13 12 11 11 11 10 10 10 9 8 7 7 7 7 7 9 10 10 9 9 11 14 16 16 15 15 15 14 13 12 12 13 14 15 15 15 15 14 14 13 12 12 11 11 11 12 13 12
4 4 3 4 5 6 7 8 9 9 10 11 12 12 13 13 13 13 13 13 13 13 13 13 13 13 13 13 12 11 11 11 11 10 10 9 8 7 8 8 8 10 11 10 9 10 13 16 16 16 15 16 16 14 13 13 12 11 11 11 10 10 10 10 9 8 8 9 9 10 10 11 12 12
Wind_Direction
234 232 231 229 226 226 232 238 245 259 271 276 290 306 318 324 323 320 317 318 329 343 354 356 349 344 337 329 327 326 319 311 312 316 317 313 309 309 311 318 326 330 326 320 313 305 298 289 277 273 276 279 280 282 282 279 276 279 274 266 267 274 282 297 302 297 281 266 268 280 283 282 282 280
234 234 234 233 231 231 234 237 241 251 265 272 280 291 301 308 317 318 314 309 309 321 337 344 342 338 335 330 325 322 319 313 313 315 313 309 304 299 297 303 315 324 324 318 320 326 318 304 285 269 266 267 269 271 274 275 277 279 270 262 265 271 279 288 293 295 286 268 261 270 276 277 277 271
234 236 236 236 236 236 237 239 242 247 257 268 275 282 286 292 302 309 310 305 301 307 316 325 329 328 328 329 326 321 316 315 317 316 312 308 303 297 293 295 302 313 315 306 306 318 321 312 298 285 274 266 262 263 267 271 275 273 266 263 265 267 274 283 286 288 286 271 263 266 270 272 274 271
236 238 238 238 238 239 241 244 247 249 252 261 269 274 277 281 290 298 302 301 301 302 306 313 318 314 312 320 325 322 316 315 316 313 308 306 302 297 294 292 295 303 305 297 290 297 306 306 296 289 285 276 268 263 261 263 266 267 266 264 260 262 270 279 282 281 280 275 271 271 271 270 272 272
241 243 242 242 241 242 244 247 250 251 252 256 262 267 270 274 283 290 295 298 300 299 300 307 311 305 300 304 313 318 316 312 309 305 305 305 302 297 293 291 293 296 297 294 291 291 294 296 292 287 285 281 276 270 264 260 258 258 260 260 258 261 267 274 278 275 268 268 271 271 270 270 269 268
243 246 247 246 246 248 249 250 252 253 252 254 257 262 266 270 277 284 290 294 296 297 298 299 300 300 297 294 299 307 308 306 304 301 303 303 300 296 295 295 295 293 294 294 293 291 288 288 289 286 282 280 277 273 269 265 262 259 258 259 261 263 266 267 268 262 256 259 263 264 266 268 267 265
244 248 250 250 251 253 253 252 253 255 255 254 255 257 262 268 274 279 283 287 291 296 297 295 294 294 292 288 288 292 295 297 299 299 298 297 296 294 294 295 295 295 296 295 293 289 284 282 283 283 282 279 276 272 269 271 272 269 265 264 264 264 262 257 252 252 254 258 259 257 261 268 269 266
246 249 250 251 254 257 256 254 254 256 258 258 257 257 260 265 270 273 276 280 286 292 295 293 290 287 286 283 281 281 285 289 292 294 293 294 295 293 291 293 296 298 297 296 293 289 283 279 277 277 277 277 275 273 273 275 276 275 274 272 271 268 261 252 249 251 252 259 263 259 259 268 271 266
248 250 252 252 255 259 260 259 258 259 260 262 262 262 261 263 266 269 273 277 282 287 290 289 285 282 282 281 279 278 280 282 285 288 290 293 296 296 294 296 298 299 297 293 290 287 283 278 275 274 274 274 273 274 277 279 277 276 275 274 273 269 260 252 250 249 249 255 260 255 253 262 268 264
248 251 253 255 257 260 261 261 262 263 264 264 266 267 266 265 265 267 270 274 278 281 284 282 279 279 279 277 276 274 275 278 280 283 287 293 298 300 299 299 298 297 294 289 286 284 282 279 276 276 275 274 275 276 279 281 277 273 273 272 272 267 257 252 249 246 247 254 257 253 253 262 265 259
248 251 254 256 258 259 260 261 261 263 265 267 268 269 270 269 268 268 270 273 274 276 276 274 272 274 275 274 274 274 275 276 276 280 287 295 301 302 300 297 294 292 289 287 286 284 282 281 280 279 278 278 277 277 278 279 277 274 271 270 270 265 257 253 247 242 245 252 255 253 256 265 263 250
248 250 252 254 256 257 259 260 260 261 264 267 268 269 269 269 269 271 272 272 272 271 269 266 267 270 271 270 272 274 273 273 276 283 288 294 301 304 300 294 290 288 288 287 286 286 286 285 282 280 278 276 276 276 275 274 274 273 271 270 268 264 259 254 244 241 246 252 254 252 256 265 263 246
248 250 251 253 255 257 259 259 258 259 262 265 266 267 267 267 269 272 272 270 268 266 264 262 264 267 267 268 270 272 272 276 282 285 286 290 298 301 298 294 289 287 287 286 287 291 293 290 284 279 276 275 275 274 272 271 271 272 272 271 269 266 264 256 243 242 248 250 250 251 257 265 264 250
248 250 252 254 256 258 259 258 256 258 260 262 264 266 266 266 269 272 272 269 266 263 262 261 263 265 266 266 268 271 274 279 282 283 284 289 294 293 291 291 291 290 288 287 288 292 294 292 287 281 277 275 274 273 273 274 273 272 271 271 270 269 269 261 247 244 248 249 249 254 262 268 265 253
250 252 254 255 257 257 256 255 256 258 261 261 263 265 267 270 272 271 271 271 269 265 263 262 262 264 265 266 268 271 274 276 278 281 285 288 288 286 285 286 288 289 290 290 291 291 292 292 289 284 280 277 274 273 275 274 273 272 271 271 271 271 272 268 255 248 249 252 255 258 264 270 267 254
250 251 252 253 253 253 251 252 256 259 262 264 265 266 268 269 269 268 270 273 273 271 270 269 266 264 264 266 268 270 273 275 277 280 283 285 286 284 281 282 286 290 292 292 292 290 289 288 286 284 282 281 277 275 275 275 273 273 273 273 272 271 273 272 263 253 252 256 258 259 263 268 265 255
250 249 250 250 249 249 249 251 254 259 263 265 265 266 266 264 262 265 269 273 274 276 277 276 273 270 268 268 268 270 275 277 278 280 282 284 284 281 280 282 285 287 288 289 289 288 286 284 283 283 284 285 282 279 278 277 276 275 274 273 271 269 271 273 268 258 254 255 257 259 262 263 260 253
251 252 253 254 253 252 252 253 255 260 265 265 264 263 261 259 260 264 268 272 275 277 277 277 276 276 275 273 272 274 277 278 280 281 282 283 283 283 284 285 284 283 283 283 284 284 285 285 283 283 286 287 285 283 281 279 277 276 274 272 270 268 268 270 267 261 257 257 259 260 261 259 256 253
250 253 255 257 257 255 253 253 256 262 266 266 265 263 261 260 262 265 268 272 274 274 273 273 273 274 276 276 275 274 274 276 279 281 282 285 286 285 287 288 285 283 282 282 281 282 286 288 285 286 288 288 285 283 282 280 278 277 275 273 271 268 266 265 262 259 257 257 258 262 264 261 257 255
248 250 252 255 257 256 254 253 256 263 267 267 266 264 262 262 263 266 270 274 274 271 270 271 271 271 272 273 274 274 274 276 279 281 283 285 283 282 285 287 285 282 282 282 280 282 286 287 286 287 288 286 285 284 282 281 280 279 278 275 272 270 268 265 261 258 257 255 255 258 261 262 261 259
246 248 250 252 254 254 253 254 258 263 268 268 266 263 262 263 266 270 273 274 271 269 270 272 272 272 273 273 273 274 275 277 279 280 281 282 282 283 285 287 287 286 286 284 282 280 281 283 284 286 287 286 285 285 284 284 283 282 280 278 276 272 268 265 262 259 257 256 256 255 254 255 258 259
245 249 252 253 254 252 250 253 259 264 267 268 266 265 265 267 269 271 272 272 269 268 270 272 271 271 272 272 274 274 275 276 276 276 276 279 281 283 284 285 287 287 285 285 283 280 281 285 286 287 288 287 285 285 286 286 286 285 284 282 281 279 274 267 263 260 257 256 258 259 258 255 255 254
247 252 254 254 253 251 250 252 258 264 267 267 266 265 266 266 267 268 268 269 270 270 270 270 270 270 270 272 275 276 277 276 274 272 273 274 276 277 279 282 285 285 283 284 285 284 286 288 285 282 283 284 285 287 287 287 287 287 285 284 283 281 278 273 267 263 259 257 257 258 260 259 256 251
247 250 251 251 252 254 254 256 260 265 267 267 267 266 265 266 268 269 270 270 271 271 271 270 270 270 271 273 274 275 276 276 275 274 274 273 272 273 276 278 279 280 281 283 284 286 287 286 282 280 280 282 285 288 289 288 287 285 284 284 283 282 280 277 273 268 264 260 257 255 257 259 257 252
245 245 245 247 251 255 257 259 262 265 267 268 269 269 269 271 273 274 274 274 274 273 272 272 272 272 273 274 274 274 274 275 276 277 277 276 275 274 274 275 276 277 279 282 284 286 285 283 283 283 281 280 282 285 289 289 286 284 284 284 283 282 281 278 276 273 271 267 261 256 255 257 258 254
243 244 245 248 252 255 258 261 263 264 266 267 268 269 270 271 272 272 273 273 273 273 273 273 273 274 274 274 274 274 274 275 276 278 279 279 278 277 275 274 274 275 278 281 282 283 282 282 283 283 281 280 281 283 285 285 284 284 284 284 283 284 284 280 278 277 274 270 266 263 262 259 257 252
246 248 251 254 256 259 261 263 264 264 265 265 266 267 268 269 270 270 270 271 272 272 273 273 273 274 274 275 275 275 276 276 278 279 280 280 279 278 277 276 274 275 278 279 280 281 281 282 283 283 283 284 283 281 282 283 285 285 286 286 286 285 284 281 279 279 277 274 273 271 266 260 255 249
250 253 256 259 262 264 265 266 266 266 266 267 267 269 270 270 271 271 271 272 272 272 273 272 273 274 274 275 276 276 278 279 279 279 280 279 278 278 278 277 277 276 276 277 277 279 281 281 282 284 284 284 282 280 281 283 285 285 286 286 285 284 284 283 282 281 279 277 276 273 267 262 255 246
258 262 264 266 268 269 270 270 270 270 270 270 271 272 272 272 273 273 273 274 274 274 274 274 274 275 275 276 277 278 279 279 278 278 278 278 278 279 279 279 279 278 277 277 277 278 280 280 281 283 284 283 281 281 282 283 284 285 285 285 284 284 285 285 283 282 280 277 275 273 270 264 255 242
265 266 267 269 270 272 273 274 274 274 275 275 275 275 275 275 275 275 275 275 275 275 275 275 276 276 276 277 278 278 278 277 277 277 278 279 280 280 279 279 279 280 279 278 277 278 279 280 281 282 282 282 281 281 281 282 283 283 283 283 283 284 285 285 285 284 282 276 272 269 265 259 252 242
264 266 268 271 274 276 277 278 279 279 279 279 279 278 278 277 277 277 276 276 276 277 277 277 277 277 277 278 277 277 277 277 277 277 278 278 279 279 280 280 280 281 281 281 280 280 280 280 281 281 281 280 279 280 281 282 283 283 283 283 282 283 285 287 286 285 281 274 269 265 260 254 248 240
267 270 272 275 276 278 279 279 280 280 280 280 280 279 279 279 279 279 279 278 278 278 278 278 278 277 277 276 276 275 275 275 275 276 277 277 277 278 279 280 280 281 282 282 282 282 282 282 282 282 282 282 281 281 283 283 282 282 284 284 283 283 285 285 283 281 277 271 265 258 253 248 243 234
270 272 274 276 279 282 283 284 285 285 285 285 284 283 283 283 283 283 283 284 284 284 282 279 277 276 277 277 277 278 278 277 276 276 276 277 277 278 279 279 279 280 281 282 283 284 285 286 286 286 285 283 282 281 282 281 281 283 285 284 283 283 283 281 279 277 273 267 260 252 245 240 233 226
270 274 278 282 285 288 291 294 296 298 298 297 296 294 292 291 290 291 291 293 296 296 293 287 282 281 284 286 286 286 285 285 285 284 281 279 277 276 276 276 276 277 279 283 285 287 287 287 287 286 285 283 283 284 284 283 284 285 286 285 283 282 280 277 274 270 266 262 257 247 237 227 220 218
280 285 288 290 294 297 302 307 310 313 314 313 312 309 307 304 303 301 300 302 303 304 302 296 291 289 289 291 293 292 289 290 294 295 289 283 279 277 276 276 277 278 281 285 287 286 285 285 286 287 288 289 288 286 285 283 282 283 283 282 280 277 272 269 266 263 261 261 252 234 224 216 210 208
293 297 297 297 300 304 308 312 316 320 322 322 320 317 314 311 309 306 304 301 300 301 301 299 295 291 286 283 286 290 289 289 293 295 294 290 288 288 287 283 281 282 285 287 286 285 284 285 286 288 290 290 287 285 284 285 283 282 280 276 272 268 265 262 261 260 260 255 236 221 215 208 200 196
299 299 298 299 303 307 312 316 320 322 324 326 327 326 323 320 317 313 309 304 301 301 302 299 297 294 289 284 282 283 283 282 284 289 292 291 289 289 288 285 284 286 288 289 289 290 290 291 291 291 290 288 285 283 284 284 281 279 277 274 271 269 267 261 256 249 240 222 205 203 205 202 199 196
298 297 297 303 311 320 326 329 330 331 333 335 337 336 334 332 330 326 323 318 312 309 306 302 298 296 294 292 287 281 278 277 279 283 287 287 285 283 283 284 286 287 289 290 292 294 296 297 297 294 288 283 279 277 276 277 278 279 280 278 273 270 262 248 233 219 200 183 178 180 184 189 191 187
296 298 307 320 331 339 342 342 340 341 341 340 340 339 337 337 337 336 334 332 329 326 322 316 310 304 300 300 298 293 287 284 283 284 284 283 282 281 281 283 285 284 284 286 287 287 288 288 288 286 282 277 273 272 273 277 278 278 277 262 237 241 239 215 191 180 174 170 168 167 169 174 177 178
306 316 329 342 349 352 352 349 346 344 341 339 339 339 339 341 343 343 342 341 341 340 338 335 331 327 321 317 314 310 303 296 292 291 289 287 286 286 287 289 291 290 288 288 286 285 284 283 282 282 280 277 273 272 277 278 266 248 211 167 154 149 149 152 154 159 161 161 160 161 166 172 176 180
321 347 6 15 17 14 8 2 356 351 348 345 344 344 345 348 349 350 351 351 349 347 345 342 338 334 331 329 328 326 323 317 311 306 304 301 297 295 296 299 300 300 299 298 296 296 296 296 296 293 285 275 267 260 268 255 209 166 147 142 138 133 131 134 141 149 156 159 161 163 168 173 179 184
73 65 60 53 45 37 28 21 15 10 6 2 358 356 356 356 356 355 354 355 355 353 350 347 343 341 341 343 346 346 345 343 340 335 330 326 321 316 319 327 334 341 348 354 354 356 5 22 39 55 74 95 103 104 106 117 130 134 135 134 133 135 139 143 147 154 161 165 167 170 174 179 184 189
95 83 75 67 58 51 43 35 29 25 20 16 12 10 7 5 3 2 360 360 1 2 1 360 359 359 360 1 2 359 354 351 351 348 343 341 341 342 347 356 11 32 46 51 52 57 68 75 75 76 80 86 90 94 103 116 129 139 145 145 145 150 156 154 150 155 165 174 179 183 187 190 192 197
105 96 85 74 64 56 47 39 32 28 25 23 20 17 16 14 12 10 9 10 11 12 13 14 14 14 15 16 14 9 4 2 360 358 357 360 7 15 24 32 47 65 69 64 63 76 88 89 84 80 81 86 87 88 95 110 127 143 151 152 151 155 160 159 155 158 168 178 187 195 198 199 202 205
124 112 95 75 62 54 47 41 34 30 29 29 27 24 23 21 20 19 19 21 22 23 24 24 25 26 28 30 31 29 28 28 27 24 24 28 34 48 61 69 78 87 85 77 77 93 99 94 88 87 91 94 92 89 91 99 110 126 138 141 140 141 148 153 156 163 174 183 193 201 203 202 203 206